| time (UTC) | temp C | wind direction | speed KPH | gust KPH | rain 1hr cm | rain 24hr cm | rain mn cm | humidity % | barometer mb |
| 20260504081754 | 8 | 41 | 12.9 | 14.5 | 0.00 | 0.00 | 0.00 | 56 | 1015.6 |
| 20260504081250 | 8 | 42 | 17.7 | 24.1 | 0.00 | 0.00 | 0.00 | 56 | 1015.4 |
| 20260504080747 | 8 | 25 | 16.1 | 17.7 | 0.00 | 0.00 | 0.00 | 54 | 1015.4 |
| 20260504080243 | 8 | 43 | 20.9 | 29.0 | 0.00 | 0.00 | 0.00 | 54 | 1015.3 |
| 20260504070211 | 10 | 33 | 11.3 | 12.9 | 0.00 | 0.00 | 0.00 | 45 | 1013.9 |
| 20260504060131 | 11 | 46 | 22.5 | 29.0 | 0.00 | 0.00 | 0.00 | 39 | 1012.3 |
| 20260504050559 | 12 | 55 | 17.7 | 22.5 | 0.00 | 0.00 | 0.00 | 37 | 1011.4 |
| 20260504045553 | 12 | 31 | 37.0 | 48.3 | 0.00 | 0.00 | 0.00 | 37 | 1011.0 |
| 20260504045048 | 12 | 33 | 37.0 | 43.5 | 0.00 | 0.00 | 0.00 | 37 | 1010.9 |
| 20260504044546 | 13 | 20 | 37.0 | 46.7 | 0.00 | 0.00 | 0.00 | 39 | 1010.4 |
| 20260504044043 | 13 | 50 | 33.8 | 48.3 | 0.00 | 0.00 | 0.00 | 38 | 1010.7 |
| 20260504043540 | 14 | 48 | 30.6 | 40.2 | 0.00 | 0.00 | 0.00 | 37 | 1010.3 |
| 20260504043037 | 14 | 33 | 30.6 | 35.4 | 0.00 | 0.00 | 0.00 | 36 | 1010.2 |
| 20260504042534 | 14 | 29 | 19.3 | 24.1 | 0.00 | 0.00 | 0.00 | 37 | 1010.1 |
| 20260504042031 | 14 | 4 | 16.1 | 22.5 | 0.00 | 0.00 | 0.00 | 36 | 1010.1 |
| 20260504041527 | 14 | 73 | 17.7 | 20.9 | 0.00 | 0.00 | 0.00 | 36 | 1009.9 |
| 20260504041023 | 14 | 34 | 17.7 | 20.9 | 0.00 | 0.00 | 0.00 | 36 | 1009.7 |
| 20260504040521 | 14 | 19 | 14.5 | 17.7 | 0.00 | 0.00 | 0.00 | 36 | 1010.0 |
| 20260504040018 | 15 | 24 | 16.1 | 20.9 | 0.00 | 0.00 | 0.00 | 35 | 1009.8 |
| 20260504035515 | 15 | 13 | 17.7 | 20.9 | 0.00 | 0.00 | 0.00 | 35 | 1009.7 |
| 20260504035011 | 15 | 70 | 17.7 | 22.5 | 0.00 | 0.00 | 0.00 | 35 | 1009.4 |
| 20260504034509 | 15 | 51 | 14.5 | 17.7 | 0.00 | 0.00 | 0.00 | 35 | 1009.3 |
| 20260504034006 | 15 | 43 | 19.3 | 27.4 | 0.00 | 0.00 | 0.00 | 35 | 1009.2 |
| 20260504033503 | 15 | 31 | 17.7 | 20.9 | 0.00 | 0.00 | 0.00 | 35 | 1009.2 |
| 20260504033000 | 15 | 21 | 24.1 | 27.4 | 0.00 | 0.00 | 0.00 | 35 | 1009.1 |
| 20260504032457 | 15 | 50 | 20.9 | 27.4 | 0.00 | 0.00 | 0.00 | 35 | 1008.8 |
| 20260504031954 | 15 | 42 | 24.1 | 29.0 | 0.00 | 0.00 | 0.00 | 35 | 1008.8 |
| 20260504031450 | 15 | 46 | 20.9 | 25.7 | 0.00 | 0.00 | 0.00 | 35 | 1008.7 |
| 20260504030947 | 15 | 19 | 24.1 | 25.7 | 0.00 | 0.00 | 0.00 | 35 | 1008.9 |
| 20260504030445 | 15 | 18 | 20.9 | 25.7 | 0.00 | 0.00 | 0.00 | 35 | 1008.5 |
| 20260504025940 | 16 | 19 | 19.3 | 22.5 | 0.00 | 0.00 | 0.00 | 35 | 1008.2 |
| 20260504025437 | 16 | 17 | 17.7 | 24.1 | 0.00 | 0.00 | 0.00 | 34 | 1008.5 |
| 20260504024934 | 16 | 31 | 19.3 | 27.4 | 0.00 | 0.00 | 0.00 | 34 | 1008.5 |
| 20260504024431 | 16 | 43 | 19.3 | 24.1 | 0.00 | 0.00 | 0.00 | 33 | 1008.2 |
| 20260504023928 | 17 | 28 | 20.9 | 27.4 | 0.00 | 0.00 | 0.00 | 31 | 1008.3 |
| 20260504023425 | 17 | 64 | 11.3 | 12.9 | 0.00 | 0.00 | 0.00 | 30 | 1008.2 |
| 20260504022920 | 17 | 28 | 14.5 | 16.1 | 0.00 | 0.00 | 0.00 | 28 | 1008.2 |
| 20260504022417 | 17 | 61 | 17.7 | 20.9 | 0.00 | 0.00 | 0.00 | 27 | 1008.5 |
| 20260504021914 | 18 | 65 | 4.8 | 4.8 | 0.00 | 0.00 | 0.00 | 25 | 1008.3 |
| 20260504021411 | 18 | 41 | 4.8 | 4.8 | 0.00 | 0.00 | 0.00 | 24 | 1008.3 |
| 20260504020908 | 18 | 48 | 3.2 | 4.8 | 0.00 | 0.00 | 0.00 | 23 | 1008.5 |
| 20260504020405 | 19 | 339 | 11.3 | 12.9 | 0.00 | 0.00 | 0.00 | 23 | 1008.2 |
| 20260504015901 | 19 | 16 | 9.7 | 12.9 | 0.00 | 0.00 | 0.00 | 23 | 1008.5 |
| 20260504015357 | 20 | 0 | 9.7 | 12.9 | 0.00 | 0.00 | 0.00 | 23 | 1008.3 |
| 20260504014853 | 20 | 0 | 8.0 | 11.3 | 0.00 | 0.00 | 0.00 | 23 | 1008.3 |
| 20260504014349 | 20 | 350 | 12.9 | 14.5 | 0.00 | 0.00 | 0.00 | 22 | 1008.6 |
| 20260504013847 | 20 | 338 | 11.3 | 12.9 | 0.00 | 0.00 | 0.00 | 22 | 1008.6 |
| 20260504013345 | 21 | 345 | 12.9 | 14.5 | 0.00 | 0.00 | 0.00 | 22 | 1008.6 |
| 20260504012841 | 21 | 0 | 16.1 | 17.7 | 0.00 | 0.00 | 0.00 | 22 | 1008.6 |
| 20260504012339 | 21 | 0 | 16.1 | 17.7 | 0.00 | 0.00 | 0.00 | 22 | 1008.5 |
| 20260504011836 | 21 | 353 | 16.1 | 17.7 | 0.00 | 0.00 | 0.00 | 21 | 1008.6 |
| 20260504011332 | 21 | 6 | 6.4 | 9.7 | 0.00 | 0.00 | 0.00 | 21 | 1008.3 |
| 20260504010829 | 21 | 8 | 16.1 | 17.7 | 0.00 | 0.00 | 0.00 | 21 | 1008.5 |
| 20260504010324 | 21 | 340 | 14.5 | 16.1 | 0.00 | 0.00 | 0.00 | 22 | 1008.6 |
| 20260504005821 | 22 | 352 | 14.5 | 16.1 | 0.00 | 0.00 | 0.00 | 22 | 1008.3 |
| 20260504005318 | 22 | 338 | 12.9 | 16.1 | 0.00 | 0.00 | 0.00 | 21 | 1008.7 |
| 20260504004816 | 22 | 336 | 16.1 | 17.7 | 0.00 | 0.00 | 0.00 | 21 | 1008.8 |
| 20260504004313 | 22 | 4 | 17.7 | 22.5 | 0.00 | 0.00 | 0.00 | 21 | 1008.8 |
| 20260504003809 | 22 | 353 | 14.5 | 17.7 | 0.00 | 0.00 | 0.00 | 21 | 1008.8 |
| 20260504003307 | 22 | 5 | 17.7 | 17.7 | 0.00 | 0.00 | 0.00 | 21 | 1008.8 |
| 20260504002803 | 22 | 357 | 19.3 | 22.5 | 0.00 | 0.00 | 0.00 | 21 | 1008.8 |
| 20260504002300 | 22 | 261 | 8.0 | 11.3 | 0.00 | 0.00 | 0.00 | 21 | 1008.8 |
| 20260504001758 | 22 | 331 | 8.0 | 11.3 | 0.00 | 0.00 | 0.00 | 22 | 1008.7 |
| 20260504001254 | 22 | 343 | 22.5 | 24.1 | 0.00 | 0.00 | 0.00 | 21 | 1009.1 |
| 20260504000751 | 22 | 331 | 9.7 | 11.3 | 0.00 | 0.00 | 0.00 | 21 | 1008.9 |
| 20260504000248 | 22 | 355 | 11.3 | 17.7 | 0.00 | 0.00 | 0.00 | 21 | 1008.9 |
| 20260503235746 | 22 | 9 | 24.1 | 25.7 | 0.00 | 0.00 | 0.00 | 21 | 1009.0 |
| 20260503235243 | 23 | 324 | 12.9 | 14.5 | 0.00 | 0.00 | 0.00 | 20 | 1009.0 |
| 20260503234741 | 22 | 337 | 11.3 | 12.9 | 0.00 | 0.00 | 0.00 | 20 | 1008.9 |
| 20260503234239 | 22 | 331 | 17.7 | 17.7 | 0.00 | 0.00 | 0.00 | 20 | 1009.0 |
| 20260503233736 | 22 | 323 | 12.9 | 16.1 | 0.00 | 0.00 | 0.00 | 21 | 1009.1 |
| 20260503233231 | 22 | 329 | 12.9 | 14.5 | 0.00 | 0.00 | 0.00 | 20 | 1009.0 |
| 20260503232728 | 23 | 337 | 20.9 | 27.4 | 0.00 | 0.00 | 0.00 | 20 | 1009.1 |
| 20260503232226 | 23 | 271 | 4.8 | 6.4 | 0.00 | 0.00 | 0.00 | 20 | 1009.0 |
| 20260503231724 | 23 | 310 | 14.5 | 17.7 | 0.00 | 0.00 | 0.00 | 20 | 1009.2 |
| 20260503231220 | 23 | 339 | 17.7 | 22.5 | 0.00 | 0.00 | 0.00 | 20 | 1009.2 |
| 20260503230716 | 22 | 359 | 14.5 | 16.1 | 0.00 | 0.00 | 0.00 | 21 | 1009.1 |
| 20260503230214 | 23 | 339 | 17.7 | 20.9 | 0.00 | 0.00 | 0.00 | 20 | 1009.1 |
| 20260503225711 | 23 | 343 | 20.9 | 22.5 | 0.00 | 0.00 | 0.00 | 20 | 1009.1 |
| 20260503225206 | 23 | 305 | 20.9 | 25.7 | 0.00 | 0.00 | 0.00 | 20 | 1009.2 |
| 20260503224704 | 23 | 338 | 20.9 | 24.1 | 0.00 | 0.00 | 0.00 | 20 | 1009.3 |
| 20260503224201 | 23 | 346 | 17.7 | 20.9 | 0.00 | 0.00 | 0.00 | 20 | 1009.3 |
| 20260503223659 | 23 | 317 | 11.3 | 12.9 | 0.00 | 0.00 | 0.00 | 20 | 1009.6 |
| 20260503223156 | 23 | 335 | 17.7 | 25.7 | 0.00 | 0.00 | 0.00 | 20 | 1009.7 |
| 20260503222652 | 23 | 297 | 16.1 | 25.7 | 0.00 | 0.00 | 0.00 | 20 | 1009.8 |
| 20260503222150 | 22 | 231 | 11.3 | 14.5 | 0.00 | 0.00 | 0.00 | 21 | 1009.6 |
| 20260503221648 | 23 | 266 | 11.3 | 16.1 | 0.00 | 0.00 | 0.00 | 21 | 1009.8 |
| 20260503221145 | 22 | 328 | 16.1 | 17.7 | 0.00 | 0.00 | 0.00 | 21 | 1009.8 |
| 20260503220642 | 22 | 342 | 8.0 | 11.3 | 0.00 | 0.00 | 0.00 | 21 | 1010.0 |
| 20260503220138 | 23 | 314 | 17.7 | 20.9 | 0.00 | 0.00 | 0.00 | 20 | 1010.0 |
| 20260503215636 | 23 | 5 | 19.3 | 22.5 | 0.00 | 0.00 | 0.00 | 21 | 1009.9 |
| 20260503215132 | 23 | 349 | 12.9 | 14.5 | 0.00 | 0.00 | 0.00 | 21 | 1009.9 |
| 20260503214631 | 22 | 313 | 9.7 | 12.9 | 0.00 | 0.00 | 0.00 | 21 | 1010.1 |
| 20260503214126 | 22 | 312 | 17.7 | 22.5 | 0.00 | 0.00 | 0.00 | 20 | 1010.1 |
| 20260503213620 | 23 | 278 | 12.9 | 16.1 | 0.00 | 0.00 | 0.00 | 21 | 1010.2 |
| 20260503213116 | 23 | 266 | 14.5 | 17.7 | 0.00 | 0.00 | 0.00 | 20 | 1010.1 |
| 20260503212614 | 22 | 358 | 16.1 | 17.7 | 0.00 | 0.00 | 0.00 | 20 | 1010.1 |
| 20260503212111 | 23 | 297 | 17.7 | 20.9 | 0.00 | 0.00 | 0.00 | 20 | 1010.3 |
| 20260503211609 | 22 | 268 | 9.7 | 12.9 | 0.00 | 0.00 | 0.00 | 21 | 1010.3 |
| 20260503211104 | 22 | 315 | 8.0 | 9.7 | 0.00 | 0.00 | 0.00 | 21 | 1010.6 |
| 20260503210601 | 22 | 309 | 11.3 | 12.9 | 0.00 | 0.00 | 0.00 | 21 | 1010.6 |
| 20260503210056 | 22 | 293 | 12.9 | 17.7 | 0.00 | 0.00 | 0.00 | 21 | 1010.9 |
| 20260503205553 | 22 | 344 | 19.3 | 24.1 | 0.00 | 0.00 | 0.00 | 22 | 1010.6 |
| 20260503205049 | 22 | 331 | 17.7 | 20.9 | 0.00 | 0.00 | 0.00 | 21 | 1010.7 |
| 20260503204547 | 22 | 275 | 12.9 | 16.1 | 0.00 | 0.00 | 0.00 | 21 | 1011.1 |
| 20260503204044 | 22 | 355 | 12.9 | 14.5 | 0.00 | 0.00 | 0.00 | 21 | 1010.8 |
| 20260503203541 | 22 | 327 | 16.1 | 20.9 | 0.00 | 0.00 | 0.00 | 21 | 1011.0 |
| 20260503203038 | 22 | 332 | 9.7 | 12.9 | 0.00 | 0.00 | 0.00 | 22 | 1010.8 |
| 20260503202536 | 22 | 323 | 9.7 | 11.3 | 0.00 | 0.00 | 0.00 | 21 | 1011.1 |
| 20260503202033 | 22 | 289 | 12.9 | 14.5 | 0.00 | 0.00 | 0.00 | 22 | 1011.1 |
| 20260503201531 | 22 | 350 | 17.7 | 20.9 | 0.00 | 0.00 | 0.00 | 21 | 1011.2 |
| 20260503201028 | 22 | 251 | 11.3 | 12.9 | 0.00 | 0.00 | 0.00 | 22 | 1011.3 |
| 20260503200524 | 22 | 359 | 11.3 | 14.5 | 0.00 | 0.00 | 0.00 | 22 | 1011.5 |
| 20260503200015 | 21 | 335 | 16.1 | 22.5 | 0.00 | 0.00 | 0.00 | 21 | 1011.4 |
| 20260503195512 | 21 | 282 | 12.9 | 16.1 | 0.00 | 0.00 | 0.00 | 22 | 1011.5 |
| 20260503195003 | 21 | 284 | 16.1 | 20.9 | 0.00 | 0.00 | 0.00 | 22 | 1011.8 |
| 20260503194501 | 21 | 298 | 8.0 | 9.7 | 0.00 | 0.00 | 0.00 | 22 | 1011.8 |
| 20260503194000 | 21 | 307 | 14.5 | 17.7 | 0.00 | 0.00 | 0.00 | 22 | 1011.8 |
| 20260503193457 | 21 | 289 | 11.3 | 16.1 | 0.00 | 0.00 | 0.00 | 23 | 1011.7 |
| 20260503192953 | 22 | 329 | 16.1 | 22.5 | 0.00 | 0.00 | 0.00 | 21 | 1011.7 |
| 20260503192449 | 21 | 338 | 9.7 | 12.9 | 0.00 | 0.00 | 0.00 | 21 | 1011.8 |
| 20260503191944 | 21 | 330 | 17.7 | 22.5 | 0.00 | 0.00 | 0.00 | 21 | 1011.5 |
| 20260503191443 | 21 | 299 | 14.5 | 16.1 | 0.00 | 0.00 | 0.00 | 21 | 1012.0 |
| 20260503190938 | 21 | 311 | 14.5 | 20.9 | 0.00 | 0.00 | 0.00 | 22 | 1012.0 |
| 20260503190436 | 21 | 327 | 14.5 | 16.1 | 0.00 | 0.00 | 0.00 | 22 | 1011.9 |
| 20260503185933 | 21 | 318 | 3.2 | 4.8 | 0.00 | 0.00 | 0.00 | 24 | 1012.1 |
| 20260503185429 | 21 | 293 | 9.7 | 16.1 | 0.00 | 0.00 | 0.00 | 22 | 1012.3 |
| 20260503184928 | 21 | 255 | 11.3 | 14.5 | 0.00 | 0.00 | 0.00 | 22 | 1012.1 |
| 20260503184425 | 22 | 299 | 14.5 | 17.7 | 0.00 | 0.00 | 0.00 | 22 | 1012.3 |
| 20260503183922 | 22 | 303 | 14.5 | 16.1 | 0.00 | 0.00 | 0.00 | 21 | 1012.1 |
| 20260503183418 | 21 | 276 | 6.4 | 9.7 | 0.00 | 0.00 | 0.00 | 23 | 1012.2 |
| 20260503182916 | 20 | 290 | 6.4 | 11.3 | 0.00 | 0.00 | 0.00 | 23 | 1012.2 |
| 20260503182415 | 20 | 358 | 11.3 | 12.9 | 0.00 | 0.00 | 0.00 | 22 | 1012.1 |
| 20260503181911 | 21 | 302 | 9.7 | 12.9 | 0.00 | 0.00 | 0.00 | 23 | 1012.5 |
| 20260503181408 | 21 | 286 | 6.4 | 9.7 | 0.00 | 0.00 | 0.00 | 24 | 1012.5 |
| 20260503180904 | 21 | 329 | 17.7 | 17.7 | 0.00 | 0.00 | 0.00 | 22 | 1012.7 |
| 20260503180403 | 20 | 348 | 11.3 | 14.5 | 0.00 | 0.00 | 0.00 | 23 | 1012.5 |
| 20260503175859 | 21 | 299 | 17.7 | 20.9 | 0.00 | 0.00 | 0.00 | 22 | 1012.7 |
| 20260503175357 | 21 | 337 | 6.4 | 9.7 | 0.00 | 0.00 | 0.00 | 24 | 1012.5 |
| 20260503174857 | 21 | 239 | 1.6 | 3.2 | 0.00 | 0.00 | 0.00 | 23 | 1012.8 |
| 20260503174357 | 20 | 340 | 17.7 | 22.5 | 0.00 | 0.00 | 0.00 | 23 | 1012.7 |
| 20260503173856 | 20 | 261 | 4.8 | 4.8 | 0.00 | 0.00 | 0.00 | 24 | 1012.9 |
| 20260503173353 | 20 | 334 | 17.7 | 22.5 | 0.00 | 0.00 | 0.00 | 23 | 1013.0 |
| 20260503172849 | 20 | 325 | 9.7 | 11.3 | 0.00 | 0.00 | 0.00 | 24 | 1012.9 |
| 20260503172348 | 20 | 356 | 4.8 | 6.4 | 0.00 | 0.00 | 0.00 | 26 | 1013.0 |
| 20260503171843 | 20 | 326 | 12.9 | 14.5 | 0.00 | 0.00 | 0.00 | 25 | 1013.0 |
| 20260503171340 | 20 | 343 | 17.7 | 22.5 | 0.00 | 0.00 | 0.00 | 25 | 1012.9 |
| 20260503170838 | 20 | 4 | 11.3 | 12.9 | 0.00 | 0.00 | 0.00 | 26 | 1012.8 |
| 20260503170334 | 20 | 296 | 9.7 | 16.1 | 0.00 | 0.00 | 0.00 | 25 | 1012.9 |
| 20260503150726 | 15 | 294 | 3.2 | 4.8 | 0.00 | 0.00 | 0.00 | 49 | 1013.6 |
| 20260503150223 | 14 | 278 | 6.4 | 9.7 | 0.00 | 0.00 | 0.00 | 48 | 1013.4 |
| 20260503140147 | 11 | 284 | 6.4 | 6.4 | 0.00 | 0.00 | 0.00 | 66 | 1014.1 |
| 20260503131116 | 5 | 359 | 3.2 | 4.8 | 0.00 | 0.00 | 0.00 | 79 | 1013.9 |
| 20260503130614 | 4 | 348 | 1.6 | 1.6 | 0.00 | 0.00 | 0.00 | 79 | 1013.8 |
| 20260503130111 | 3 | 333 | 3.2 | 3.2 | 0.00 | 0.00 | 0.00 | 81 | 1013.8 |
| 20260503110504 | 2 | 17 | 3.2 | 3.2 | 0.00 | 0.00 | 0.00 | 85 | 1014.4 |